Location: Natural Bridges National Monument
(37.6093°N, 109.9767°W)
Time: 10:38:32
(UTC-06:00)

USA 32 - Visible Passes

Search period start: 28 May 2017 00:00
Search period end: 07 June 2017 00:00
Orbit: 778 x 782 km, 85.0° (Epoch: 27 May)

Date Brightness Start Highest point End Pass type
(mag) Time Alt. Az. Time Alt. Az. Time Alt. Az.
28 May 4.6 00:34:35 54° NNE 00:34:35 54° NNE 00:38:44 10° N visible
28 May 6.4 02:15:06 12° WNW 02:15:06 12° WNW 02:17:05 10° NW visible
29 May 5.1 00:01:47 34° ENE 00:01:47 34° ENE 00:05:39 10° NNE visible
29 May 5.8 01:42:18 22° WNW 01:42:18 22° WNW 01:45:56 10° NNW visible
29 May 5.7 23:28:59 20° ENE 23:28:59 20° ENE 23:32:06 10° NE visible
30 May 5.1 01:09:30 38° WNW 01:09:30 38° WNW 01:13:49 10° NNW visible
30 May 6.2 22:56:11 11° ENE 22:56:11 11° ENE 22:57:13 10° ENE visible
31 May 4.3 00:36:41 64° NNW 00:36:41 64° NNW 00:41:17 10° N visible
01 Jun 4.3 00:03:52 56° ENE 00:03:52 56° ENE 00:08:26 10° NNE visible
01 Jun 6.3 01:44:23 14° WNW 01:44:38 14° WNW 01:47:18 10° NW visible
01 Jun 5.0 23:31:02 33° ENE 23:31:02 33° ENE 23:35:15 10° NNE visible
02 Jun 5.6 01:11:33 25° WNW 01:11:33 25° WNW 01:15:50 10° NNW visible
02 Jun 5.7 22:58:12 18° E 22:58:12 18° E 23:01:35 10° NE visible
03 Jun 4.8 00:38:42 45° WNW 00:38:42 45° WNW 00:43:36 10° N visible
04 Jun 4.0 00:05:51 82° NW 00:05:51 82° NW 00:11:00 10° N visible
04 Jun 4.2 23:32:59 54° E 23:32:59 54° E 23:38:06 10° NNE visible
05 Jun 6.2 01:13:29 15° W 01:14:16 16° WNW 01:17:25 10° NW visible
05 Jun 5.0 23:00:06 29° E 23:00:21 29° E 23:04:51 10° NNE visible
06 Jun 5.5 00:40:37 27° W 00:41:12 28° WNW 00:45:43 10° NNW visible
06 Jun 5.7 22:27:12 16° E 22:27:49 16° E 22:31:00 10° NE visible
